This is the latest recevied weather packets stored in our database for station/object WD9U. If no packets are shown the sender has not sent any weather packets the latest 10 day(s).
| Time | Temp. | Humidity | Pressure | Rain* | Wind** | Luminosity | Snow |
|---|---|---|---|---|---|---|---|
| 1777584054 | 4.44° C | 55% | 1018.7 hPa | 0 mm | - | 248 W/m² | - |
| 1777583694 | 4.44° C | 57% | 1018.7 hPa | 0 mm | - | 226 W/m² | - |
| 1777583335 | 4.44° C | 56% | 1018.8 hPa | 0 mm | - | 211 W/m² | - |
| 1777582974 | 4.44° C | 56% | 1018.8 hPa | 0 mm | - | 218 W/m² | - |
| 1777582614 | 5° C | 56% | 1018.8 hPa | 0 mm | - | 220 W/m² | - |
| 1777582246 | 4.44° C | 58% | 1018.8 hPa | 0 mm | - | 207 W/m² | - |
| 1777581893 | 4.44° C | 57% | 1018.8 hPa | 0 mm | - | 176 W/m² | - |
| 1777581533 | 4.44° C | 58% | 1018.9 hPa | 0 mm | - | 178 W/m² | - |
| 1777581173 | 3.89° C | 57% | 1018.9 hPa | 0 mm | - | 190 W/m² | - |
| 1777581046 | 3.89° C | 57% | 1019 hPa | 0 mm | - | 186 W/m² | - |
| 1777580813 | 4.44° C | 56% | 1019 hPa | 0 mm | - | 200 W/m² | - |
| 1777580453 | 4.44° C | 55% | 1019 hPa | 0 mm | - | 222 W/m² | - |
| 1777580093 | 4.44° C | 59% | 1018.9 hPa | 0 mm | - | 235 W/m² | - |
| 1777579846 | 4.44° C | 58% | 1019.1 hPa | 0 mm | - | 242 W/m² | - |
| 1777579733 | 4.44° C | 58% | 1018.9 hPa | 0 mm | - | 251 W/m² | - |
| 1777579373 | 4.44° C | 58% | 1019 hPa | 0 mm | - | 298 W/m² | - |
| 1777579013 | 4.44° C | 61% | 1019 hPa | 0 mm | - | 325 W/m² | - |
| 1777578646 | 4.44° C | 60% | 1019.1 hPa | 0 mm | - | 332 W/m² | - |
| 1777578293 | 4.44° C | 58% | 1019 hPa | 0 mm | - | 371 W/m² | - |
| 1777577932 | 4.44° C | 58% | 1018.9 hPa | 0 mm | - | 381 W/m² | - |
| 1777577571 | 5° C | 59% | 1019 hPa | 0 mm | - | 398 W/m² | - |
| 1777577444 | 5° C | 61% | 1019 hPa | 0 mm | - | 406 W/m² | - |
| 1777577211 | 4.44° C | 61% | 1019 hPa | 0 mm | - | 414 W/m² | - |
| 1777576851 | 4.44° C | 61% | 1019 hPa | 0 mm | - | 413 W/m² | - |
| 1777576491 | 4.44° C | 59% | 1019.2 hPa | 0 mm | - | 382 W/m² | - |
* Rain latest hour (hover to see other rain measurements)
** Current wind speed in m/s (hover to see current wind gust speed)